星链-6358 (STARLINK-6358 )

导读

STARLINK-6358是美国SpaceX公司星链(Starlink)项目中的一颗卫星,于北京时间2023年7月16日发射入轨,属于星链星座扩容任务的一部分。星链系统旨在构建全球卫星互联网星座,为全球偏远地区等提供高速互联网接入服务,该卫星的发射进一步增强了星链星座的服务能力。

基本信息
目录编号:
57377
目录名称:
STARLINK-6358
国际标识:
2023-099BB
轨道中心:
EARTH
卫星名称:
星链-6358
卫星全名:
星链-6358 (STARLINK-6358 )
卫星状态:
在轨 (已飞行1064 天)
发射日期:
2023-07-16 UTC
国别 :
美国 (US)
星等 :
--
轨道信息
数据来源 国际轨道数据
星历时间: 2026-06-14T08:00:02+0800
20小时前
查看轨道信息
半长轴: 6863.721km
偏心率: 0.0001431
轨道倾角: 43.002°
近地点辐角 266.603°
升交点赤经 61.418°
平近点角 182.063°
近地点: 484.601km
远地点: 486.567km
周期: 94.319分钟
每日圈数: 15.267341
详细信息
固有亮度:
5
最大亮度:
2.5
卫星平台:
Starlink v1.5
覆盖范围:
全球
运营商:
太空探索技术公司
运营商所在国:
美国
制造商(研发单位):
太空探索技术公司
制造商所在国:
美国
使用方式:
暂无
卫星简介
星链(Starlink)计划是由太空探索技术公司(SpaceX)提出的一个巨型低轨卫星互联网星座项目,计划在2019年至2024年间在太空搭建由约1.2万颗卫星组成的“星链”网络,其中1584颗将部署在地球上空550千米处的近地轨道,并从2020年开始工作。该卫星仍在工作。
2D轨道图
3D轨道图
轨道高度分析图
轨道倾角分析图
轨道综合分析图
查看轨道综合分析图